Location: Brachstadt
(48.6975°N, 10.6755°E)
Time: 05:22:07
(UTC+00:00)

Meteor 1-24 Rocket - Pass Details

Date: 18 September 2020
Orbit: 790 x 927 km, 81.2° (Epoch: 27 October)

Event Time Altitude Azimuth Distance (km) Brightness Sun altitude
Rises 19:05:19 0° 353° (N) 3,342 7.2 -17.2°
Reaches altitude 10° 19:07:52 10° 2° (N) 2,423 6.3 -17.6°
Maximum altitude 19:12:56 37° 70° (ENE) 1,277 4.3 -18.4°
Enters shadow 19:14:21 32° 101° (ESE) 1,408 4.3 -18.6°
